VR2R-13 Weather Reports


Display with metric or nautical units.
time (UTC)temp
F
wind
direction
speed
MPH
gust
MPH
rain 1hr
in
rain 24hr
in
rain mn
in
humidity
%
barometer
mb
20260502191713 65 218 9.0 15.0 0.00 0.00 0.00 98 911.8
20260502191711 65 218 9.0 15.0 0.00 0.00 0.00 98 911.9
20260502191211 65 219 10.0 16.0 0.00 0.00 0.00 98 912.0
20260502191113 65 205 8.0 16.0 0.00 0.00 0.00 98 911.9
20260502190711 65 263 11.0 16.0 0.00 0.00 0.00 98 911.8
20260502190513 65 213 10.0 16.0 0.00 0.00 0.00 98 911.8
20260502185913 65 225 12.0 16.0 0.00 0.00 0.00 98 911.7
20260502185313 65 218 10.0 15.0 0.00 0.00 0.00 98 911.8
20260502185211 65 214 10.0 15.0 0.00 0.00 0.00 98 911.9
20260502184713 65 165 7.0 14.0 0.00 0.00 0.00 98 912.0
20260502184711 65 208 7.0 14.0 0.00 0.00 0.00 98 912.1
20260502184211 65 177 8.0 14.0 0.00 0.00 0.00 98 912.1
20260502184115 65 209 7.0 14.0 0.00 0.00 0.00 98 912.1
20260502183711 65 213 9.0 14.0 0.00 0.00 0.00 98 912.2
20260502183512 65 237 8.0 11.0 0.00 0.00 0.00 98 912.2
20260502183211 65 270 6.0 10.0 0.00 0.00 0.00 98 912.2
20260502182912 65 197 7.0 10.0 0.00 0.00 0.00 99 912.2
20260502182711 65 222 4.0 10.0 0.00 0.00 0.00 99 912.2
20260502170512 65 225 6.0 8.0 0.00 0.00 0.00 98 912.8
20260502170210 65 226 2.0 9.0 0.00 0.00 0.00 98 912.8
20260502164210 65 218 6.0 8.0 0.00 0.00 0.00 98 913.2
20260502164111 65 235 4.0 7.0 0.00 0.00 0.00 98 913.1
20260502163710 65 224 2.0 7.0 0.00 0.00 0.00 98 913.2
20260502163511 65 249 5.0 8.0 0.00 0.00 0.00 98 913.3
20260502163210 65 233 5.0 9.0 0.00 0.00 0.00 98 913.3
20260502162911 65 188 5.0 9.0 0.00 0.00 0.00 98 913.2
20260502162710 65 220 4.0 8.0 0.00 0.00 0.00 98 913.3
20260502162311 65 213 6.0 8.0 0.00 0.00 0.00 99 913.3
20260502162211 65 220 3.0 8.0 0.00 0.00 0.00 99 913.3
20260502152311 65 211 5.0 8.0 0.00 0.00 0.00 98 913.9
20260502152210 65 251 5.0 8.0 0.00 0.00 0.00 98 913.9
20260502151711 65 264 1.0 7.0 0.00 0.00 0.00 98 914.0
20260502151709 65 249 1.0 7.0 0.00 0.00 0.00 98 914.0
20260502151210 65 272 0.0 6.0 0.00 0.00 0.00 98 914.0
20260502151111 65 195 0.0 2.0 0.00 0.00 0.00 98 914.0
20260502150709 65 266 2.0 7.0 0.00 0.00 0.00 98 913.9
20260502150511 65 256 1.0 5.0 0.00 0.00 0.00 98 913.9
20260502150209 65 214 0.0 4.0 0.00 0.00 0.00 98 913.9
20260502130709 65 187 1.0 8.0 0.00 0.00 0.00 98 913.0
20260502130510 65 203 1.0 8.0 0.00 0.00 0.00 98 913.0
20260502123708 65 215 6.0 11.0 0.00 0.00 0.00 98 912.6
20260502123510 65 237 6.0 11.0 0.00 0.00 0.00 98 912.6
20260502123208 65 122 0.0 7.0 0.00 0.00 0.00 98 912.6
20260502122910 65 206 1.0 8.0 0.00 0.00 0.00 98 912.6
20260502122708 65 206 5.0 10.0 0.00 0.00 0.00 98 912.5
20260502122309 65 166 1.0 7.0 0.00 0.00 0.00 98 912.5
20260502122208 65 129 5.0 12.0 0.00 0.00 0.00 98 912.4
20260502121710 65 219 6.0 13.0 0.00 0.00 0.00 98 912.3
20260502121708 65 214 6.0 13.0 0.00 0.00 0.00 98 912.4
20260502121208 65 203 7.0 10.0 0.00 0.00 0.00 98 912.3
20260502121109 65 210 6.0 10.0 0.00 0.00 0.00 98 912.2
20260502120709 65 213 4.0 9.0 0.00 0.00 0.00 98 912.2
20260502120511 65 210 7.0 9.0 0.00 0.00 0.00 98 912.1
20260502120208 65 219 5.0 7.0 0.00 0.00 0.00 98 912.2
20260502115909 65 204 0.0 4.0 0.00 0.00 0.00 98 912.2
20260502115309 65 193 0.0 5.0 0.00 0.00 0.00 98 912.1
20260502115208 65 142 4.0 10.0 0.00 0.00 0.00 98 912.2
20260502114710 65 217 3.0 10.0 0.00 0.00 0.00 98 912.2
20260502114708 65 219 3.0 10.0 0.00 0.00 0.00 98 912.2
20260502114208 65 219 7.0 9.0 0.00 0.00 0.00 98 912.1
20260502114109 65 195 6.0 9.0 0.00 0.00 0.00 98 912.2
20260502113708 65 222 4.0 9.0 0.00 0.00 0.00 98 912.1
20260502113509 65 229 6.0 9.0 0.00 0.00 0.00 98 912.1
20260502113208 65 189 4.0 9.0 0.00 0.00 0.00 98 912.0
20260502112909 65 243 5.0 9.0 0.00 0.00 0.00 98 911.9
20260502112708 65 205 4.0 8.0 0.00 0.00 0.00 98 912.0
20260502112309 65 214 1.0 7.0 0.00 0.00 0.00 98 911.8
20260502112208 65 212 0.0 7.0 0.00 0.00 0.00 98 911.8
20260502111710 65 232 5.0 9.0 0.00 0.00 0.00 98 911.9
20260502111708 65 230 5.0 9.0 0.00 0.00 0.00 98 911.9
20260502111208 66 177 7.0 12.0 0.00 0.00 0.00 98 911.9
20260502111109 65 197 3.0 12.0 0.00 0.00 0.00 98 911.9
20260502110708 65 226 7.0 9.0 0.00 0.00 0.00 98 911.9
20260502110509 66 233 1.0 8.0 0.00 0.00 0.00 98 911.9
20260502110208 66 213 7.0 11.0 0.00 0.00 0.00 98 911.9
20260502105909 66 236 7.0 11.0 0.00 0.00 0.00 98 911.8
20260502105708 66 217 7.0 11.0 0.00 0.00 0.00 98 911.8
20260502105309 66 233 1.0 9.0 0.00 0.00 0.00 98 911.9
20260502105207 66 220 5.0 9.0 0.00 0.00 0.00 98 912.0
20260502104709 66 213 4.0 7.0 0.00 0.00 0.00 98 912.0
20260502104707 66 212 4.0 7.0 0.00 0.00 0.00 98 912.0
20260502104207 66 239 0.0 5.0 0.00 0.00 0.00 98 912.0
20260502103707 66 231 1.0 7.0 0.00 0.00 0.00 98 911.9
20260502103509 66 178 6.0 13.0 0.00 0.00 0.00 98 912.0
20260502103207 66 211 1.0 13.0 0.00 0.00 0.00 98 911.9
20260502102909 66 215 8.0 12.0 0.00 0.00 0.00 98 911.7
20260502102707 66 277 6.0 10.0 0.00 0.00 0.00 99 911.7
20260502102309 65 210 4.0 10.0 0.00 0.00 0.00 99 911.8
20260502102207 65 228 0.0 9.0 0.00 0.00 0.00 99 911.8
20260502091207 66 248 2.0 10.0 0.00 0.00 0.00 99 911.6
20260502091108 66 221 0.0 0.0 0.00 0.00 0.00 99 911.6
20260502090508 66 226 0.0 5.0 0.00 0.00 0.00 99 911.6
20260502071206 66 192 7.0 10.0 0.00 0.00 0.00 98 912.6
20260502071107 66 197 7.0 10.0 0.00 0.00 0.00 98 912.5
20260502070706 66 179 1.0 8.0 0.00 0.00 0.00 98 912.7
20260502070507 66 229 6.0 10.0 0.00 0.00 0.00 98 912.6
20260502065907 66 191 5.0 9.0 0.00 0.00 0.00 98 912.7
20260502065206 66 213 1.0 10.0 0.00 0.00 0.00 98 912.8
20260502064707 66 196 6.0 8.0 0.00 0.00 0.00 98 912.8
20260502064107 66 200 7.0 12.0 0.00 0.00 0.00 98 912.8
20260502063706 66 223 8.0 11.0 0.00 0.00 0.00 98 913.0
20260502063507 66 187 3.0 11.0 0.00 0.00 0.00 98 913.0
20260502063206 66 255 7.0 11.0 0.00 0.00 0.00 98 913.0
20260502062907 66 198 7.0 11.0 0.00 0.00 0.00 98 913.0
20260502062707 66 221 7.0 11.0 0.00 0.00 0.00 98 913.2
20260502062307 66 179 6.0 9.0 0.00 0.00 0.00 98 913.3
20260502062205 66 215 3.0 8.0 0.00 0.00 0.00 98 913.2
20260502061707 66 239 0.0 5.0 0.00 0.00 0.00 98 913.3
20260502061705 66 245 0.0 5.0 0.00 0.00 0.00 98 913.3
20260502060705 66 135 4.0 8.0 0.00 0.00 0.00 98 913.3
20260502060506 66 238 3.0 8.0 0.00 0.00 0.00 98 913.4
20260502055906 66 226 0.0 5.0 0.00 0.00 0.00 98 913.4
20260502055705 66 142 0.0 7.0 0.00 0.00 0.00 98 913.5
20260502055307 66 150 0.0 7.0 0.00 0.00 0.00 98 913.6
20260502055205 66 193 6.0 10.0 0.00 0.00 0.00 98 913.5
20260502054707 66 174 0.0 4.0 0.00 0.00 0.00 98 913.6
20260502054705 66 199 0.0 4.0 0.00 0.00 0.00 98 913.6
20260502054205 66 145 5.0 8.0 0.00 0.00 0.00 98 913.7
20260502054107 65 238 2.0 7.0 0.00 0.00 0.00 98 913.7
20260502053705 66 197 7.0 10.0 0.00 0.00 0.00 98 913.9
20260502053506 66 156 6.0 9.0 0.00 0.00 0.00 98 913.9
20260502053205 66 200 0.0 8.0 0.00 0.00 0.00 98 913.9
20260502052906 66 219 5.0 11.0 0.00 0.00 0.00 98 914.0
20260502052306 66 219 5.0 8.0 0.00 0.00 0.00 98 914.1
20260502051707 66 199 9.0 15.0 0.00 0.00 0.00 98 914.1
20260502051705 66 198 9.0 15.0 0.00 0.00 0.00 98 914.1
20260502051205 66 172 3.0 12.0 0.00 0.00 0.00 98 914.2
20260502051106 66 218 5.0 7.0 0.00 0.00 0.00 98 914.3
20260502050705 66 179 1.0 8.0 0.00 0.00 0.00 98 914.2
20260502050506 66 207 4.0 8.0 0.00 0.00 0.00 98 914.2
20260502050205 66 174 7.0 12.0 0.00 0.00 0.00 98 914.3
20260502045906 65 240 1.0 8.0 0.00 0.00 0.00 99 914.3
20260502044706 65 213 6.0 14.0 0.00 0.00 0.00 98 914.6
20260502044205 65 271 2.0 10.0 0.00 0.00 0.00 98 914.6
20260502043705 65 207 6.0 10.0 0.00 0.00 0.00 98 914.6
20260502043506 65 199 4.0 10.0 0.00 0.00 0.00 98 914.6
20260502043205 65 195 0.0 0.0 0.00 0.00 0.00 98 914.6
20260502042906 65 145 7.0 12.0 0.00 0.00 0.00 98 914.6
20260502042704 65 193 0.0 9.0 0.00 0.00 0.00 98 914.6
20260502042307 65 160 0.0 0.0 0.00 0.00 0.00 98 914.7
20260502042204 66 130 6.0 10.0 0.00 0.00 0.00 98 914.6
20260502041706 65 211 1.0 9.0 0.00 0.00 0.00 99 914.7
20260502040704 65 198 0.0 7.0 0.00 0.00 0.00 98 914.8
20260502040506 65 162 0.0 7.0 0.00 0.00 0.00 99 914.8
20260502035906 65 135 1.0 11.0 0.00 0.00 0.00 99 914.8
20260502035306 65 155 4.0 11.0 0.00 0.00 0.00 98 914.8
20260502033704 65 253 7.0 10.0 0.00 0.00 0.00 98 914.9
20260502033507 65 154 0.0 0.0 0.00 0.00 0.00 98 914.9
20260502033204 65 203 1.0 10.0 0.00 0.00 0.00 99 915.0
20260502032704 65 180 0.0 8.0 0.00 0.00 0.00 98 915.0
20260502032306 65 113 6.0 11.0 0.00 0.00 0.00 98 915.0
20260502032204 65 190 7.0 11.0 0.00 0.00 0.00 98 915.1
20260502031706 65 221 6.0 10.0 0.00 0.00 0.00 98 915.0
20260502031704 65 161 6.0 10.0 0.00 0.00 0.00 98 915.1
20260502031204 65 210 6.0 10.0 0.00 0.00 0.00 98 915.1
20260502031105 65 201 6.0 10.0 0.00 0.00 0.00 98 915.1
20260502030705 65 206 1.0 10.0 0.00 0.00 0.00 98 915.1
20260502030505 65 115 7.0 10.0 0.00 0.00 0.00 98 915.2
20260502030204 65 150 7.0 11.0 0.00 0.00 0.00 98 915.1
20260502025905 65 188 7.0 11.0 0.00 0.00 0.00 98 915.1
20260502025704 65 154 7.0 11.0 0.00 0.00 0.00 98 915.1
20260502025306 65 183 7.0 11.0 0.00 0.00 0.00 98 915.1
20260502025204 65 179 7.0 11.0 0.00 0.00 0.00 98 915.1
20260502024705 65 208 7.0 11.0 0.00 0.00 0.00 98 915.2
20260502024204 65 126 5.0 10.0 0.00 0.00 0.00 98 915.2
20260502024105 65 147 1.0 8.0 0.00 0.00 0.00 98 915.2
20260502023704 65 111 0.0 7.0 0.00 0.00 0.00 98 915.2
20260502023505 66 140 5.0 11.0 0.00 0.00 0.00 98 915.2
20260502023204 65 141 7.0 10.0 0.00 0.00 0.00 98 915.1
20260502022905 65 157 5.0 8.0 0.00 0.00 0.00 98 915.1
20260502022306 65 149 6.0 10.0 0.00 0.00 0.00 98 915.2
20260502022204 65 104 5.0 10.0 0.00 0.00 0.00 98 915.2
20260502021705 64 113 2.0 7.0 0.00 0.00 0.00 98 915.1
20260502021703 64 120 2.0 7.0 0.00 0.00 0.00 98 915.1
20260502021203 64 116 7.0 11.0 0.00 0.00 0.00 98 915.2
20260502021105 64 82 2.0 9.0 0.00 0.00 0.00 98 915.1
20260502020703 64 97 2.0 9.0 0.00 0.00 0.00 98 915.2
20260502020203 64 120 2.0 9.0 0.00 0.00 0.00 98 915.1
20260502015905 64 97 1.0 7.0 0.00 0.00 0.00 98 915.1
20260502015703 64 110 7.0 10.0 0.00 0.00 0.00 98 915.1
20260502015305 64 113 6.0 8.0 0.00 0.00 0.00 98 915.1
20260502015203 64 101 5.0 8.0 0.00 0.00 0.00 98 915.1
20260502014705 64 103 7.0 10.0 0.00 0.00 0.00 98 915.0
20260502014703 64 95 7.0 10.0 0.00 0.00 0.00 98 915.0
20260502014203 64 109 6.0 10.0 0.00 0.00 0.00 98 915.0
20260502014104 64 106 6.0 10.0 0.00 0.00 0.00 98 914.9
20260502013703 64 77 0.0 4.0 0.00 0.00 0.00 98 914.9
20260502013203 64 114 6.0 11.0 0.00 0.00 0.00 98 915.0
20260502012904 64 109 7.0 11.0 0.00 0.00 0.00 98 915.0
20260502012703 64 105 6.0 11.0 0.00 0.00 0.00 98 915.0
20260502012306 64 86 7.0 10.0 0.00 0.00 0.00 98 914.9
20260502012203 64 92 3.0 10.0 0.00 0.00 0.00 98 914.8
20260502011705 64 84 7.0 11.0 0.00 0.00 0.00 98 914.9
20260502011703 64 94 7.0 11.0 0.00 0.00 0.00 98 914.9
20260502011203 64 102 7.0 12.0 0.00 0.00 0.00 98 914.8
20260502011104 64 102 8.0 12.0 0.00 0.00 0.00 98 914.8
20260502010504 64 88 8.0 11.0 0.00 0.00 0.00 98 914.8
20260502005904 64 104 2.0 11.0 0.00 0.00 0.00 98 914.6
20260502005703 63 122 1.0 11.0 0.00 0.00 0.00 98 914.6
20260502005306 64 89 2.0 11.0 0.00 0.00 0.00 98 914.7
20260502005203 64 103 10.0 13.0 0.00 0.00 0.00 98 914.7
20260502004705 64 99 8.0 10.0 0.00 0.00 0.00 98 914.7
20260502004703 64 90 8.0 10.0 0.00 0.00 0.00 98 914.7
20260502004203 64 107 7.0 10.0 0.00 0.00 0.00 98 914.7
20260502004104 64 89 8.0 10.0 0.00 0.00 0.00 98 914.7
20260502003703 64 95 1.0 8.0 0.00 0.00 0.00 98 914.7
20260502003505 64 96 8.0 13.0 0.00 0.00 0.00 98 914.7
20260502003203 64 103 9.0 13.0 0.00 0.00 0.00 98 914.5
20260502002904 64 95 3.0 10.0 0.00 0.00 0.00 98 914.6
20260502002703 64 75 7.0 10.0 0.00 0.00 0.00 98 914.6
20260502002305 64 90 6.0 10.0 0.00 0.00 0.00 98 914.5
20260502002203 64 82 1.0 8.0 0.00 0.00 0.00 98 914.5
20260502001704 64 103 10.0 14.0 0.00 0.00 0.00 98 914.4
20260502001202 64 114 10.0 16.0 0.00 0.00 0.00 98 914.3
20260502001104 64 90 10.0 16.0 0.00 0.00 0.00 98 914.3
20260502000702 64 89 11.0 16.0 0.00 0.00 0.00 98 914.3
20260502000504 63 109 11.0 14.0 0.00 0.00 0.00 98 914.3
20260502000203 63 87 10.0 12.0 0.00 0.00 0.00 98 914.3
20260501235904 64 94 8.0 11.0 0.00 0.00 0.00 98 914.4
20260501235702 64 87 7.0 10.0 0.00 0.00 0.00 98 914.5
20260501235305 64 68 7.0 13.0 0.00 0.00 0.00 98 914.4
20260501235203 63 102 7.0 14.0 0.00 0.00 0.00 98 914.4
20260501234704 63 90 10.0 14.0 0.00 0.00 0.00 98 914.3
20260501234702 63 96 10.0 14.0 0.00 0.00 0.00 98 914.3
20260501234202 63 111 9.0 16.0 0.00 0.00 0.00 98 914.3
20260501234104 63 88 9.0 16.0 0.00 0.00 0.00 98 914.3
20260501233702 63 106 9.0 16.0 0.00 0.00 0.00 98 914.3
20260501233504 63 109 10.0 16.0 0.00 0.00 0.00 98 914.2
20260501233202 63 104 10.0 15.0 0.00 0.00 0.00 98 914.2
20260501232903 63 76 9.0 14.0 0.00 0.00 0.00 98 914.2
20260501232702 63 90 8.0 13.0 0.00 0.00 0.00 98 914.2
20260501232306 63 81 9.0 13.0 0.00 0.00 0.00 98 914.2
20260501232202 63 89 4.0 13.0 0.00 0.00 0.00 98 914.1
20260501231704 63 76 12.0 15.0 0.00 0.00 0.00 98 914.1
20260501231702 63 102 12.0 15.0 0.00 0.00 0.00 98 914.2
20260501231202 63 86 2.0 12.0 0.00 0.00 0.00 98 914.0
20260501231103 63 108 12.0 18.0 0.00 0.00 0.00 98 913.9
20260501230702 63 111 11.0 16.0 0.00 0.00 0.00 98 913.9
20260501230503 63 105 10.0 15.0 0.00 0.00 0.00 98 913.7
20260501230202 63 111 11.0 15.0 0.00 0.00 0.00 98 913.9
20260501225903 63 103 10.0 15.0 0.00 0.00 0.00 98 913.9
20260501225702 63 105 12.0 15.0 0.00 0.00 0.00 98 913.9
20260501225306 63 91 10.0 16.0 0.00 0.00 0.00 98 913.8
20260501224704 63 91 11.0 16.0 0.00 0.00 0.00 97 913.7
20260501224702 63 96 11.0 16.0 0.00 0.00 0.00 97 913.7
20260501224203 63 86 11.0 16.0 0.00 0.00 0.00 97 913.6
20260501224103 63 92 11.0 15.0 0.00 0.00 0.00 98 913.6
20260501223702 63 71 11.0 15.0 0.00 0.00 0.00 98 913.8
20260501223503 63 111 10.0 15.0 0.00 0.00 0.00 98 913.7
20260501223202 63 88 11.0 14.0 0.00 0.00 0.00 97 913.7
20260501222903 63 89 11.0 15.0 0.00 0.00 0.00 98 913.7
20260501222702 63 81 10.0 15.0 0.00 0.00 0.00 98 913.7
20260501222305 63 90 11.0 16.0 0.00 0.00 0.00 98 913.6
20260501222202 63 83 11.0 16.0 0.00 0.00 0.00 98 913.7
20260501221703 63 103 10.0 18.0 0.00 0.00 0.00 98 913.7
20260501221201 63 81 13.0 18.0 0.00 0.00 0.00 98 913.6
20260501221103 63 82 11.0 17.0 0.00 0.00 0.00 98 913.5
20260501220701 63 94 2.0 15.0 0.00 0.00 0.00 98 913.5
20260501220504 63 97 12.0 16.0 0.00 0.00 0.00 98 913.5
20260501220201 63 74 11.0 14.0 0.00 0.00 0.00 98 913.7
20260501215903 63 92 10.0 14.0 0.00 0.00 0.00 98 913.7
20260501215701 63 81 11.0 14.0 0.00 0.00 0.00 98 913.7
20260501215305 63 107 10.0 13.0 0.00 0.00 0.00 98 913.7
20260501215201 63 85 10.0 13.0 0.00 0.00 0.00 98 913.7
20260501214703 63 87 9.0 12.0 0.00 0.00 0.00 98 913.8
20260501214701 63 82 9.0 12.0 0.00 0.00 0.00 98 913.8
20260501214201 63 86 8.0 13.0 0.00 0.00 0.00 98 913.9
20260501214104 63 88 8.0 13.0 0.00 0.00 0.00 98 913.9
20260501213701 63 87 8.0 14.0 0.00 0.00 0.00 98 913.9
20260501213503 63 74 8.0 14.0 0.00 0.00 0.00 98 913.8
20260501213201 63 86 10.0 14.0 0.00 0.00 0.00 98 913.6
20260501212903 64 82 10.0 14.0 0.00 0.00 0.00 98 913.6
20260501212701 64 95 10.0 14.0 0.00 0.00 0.00 98 913.6
20260501212305 63 109 10.0 14.0 0.00 0.00 0.00 98 913.6
20260501212201 63 90 11.0 14.0 0.00 0.00 0.00 97 913.7
20260501211703 64 75 9.0 12.0 0.00 0.00 0.00 98 913.8
20260501211701 64 104 9.0 12.0 0.00 0.00 0.00 98 913.8
20260501211201 64 73 9.0 13.0 0.00 0.00 0.00 98 913.8
20260501211103 64 79 8.0 13.0 0.00 0.00 0.00 98 913.8
20260501210701 64 91 10.0 13.0 0.00 0.00 0.00 98 913.8
20260501210502 64 80 9.0 13.0 0.00 0.00 0.00 98 913.8
20260501210201 64 77 9.0 12.0 0.00 0.00 0.00 98 913.8
20260501205902 64 90 9.0 11.0 0.00 0.00 0.00 98 913.8
20260501205701 64 92 9.0 12.0 0.00 0.00 0.00 98 913.9
20260501205305 63 83 8.0 12.0 0.00 0.00 0.00 98 913.8
20260501205201 63 64 8.0 12.0 0.00 0.00 0.00 98 913.8
20260501204703 63 71 8.0 13.0 0.00 0.00 0.00 98 913.8
20260501204701 63 61 8.0 13.0 0.00 0.00 0.00 98 913.8
20260501204201 63 96 9.0 13.0 0.00 0.00 0.00 98 913.6
20260501204102 63 73 10.0 12.0 0.00 0.00 0.00 98 913.7
20260501203701 63 66 8.0 11.0 0.00 0.00 0.00 98 913.7
20260501203502 63 83 8.0 11.0 0.00 0.00 0.00 98 913.7
20260501203201 63 81 7.0 11.0 0.00 0.00 0.00 98 913.7
20260501202902 63 82 7.0 11.0 0.00 0.00 0.00 98 913.6
20260501202701 63 83 8.0 11.0 0.00 0.00 0.00 98 913.7
20260501202306 63 87 9.0 12.0 0.00 0.00 0.00 98 913.5
20260501202201 63 69 8.0 12.0 0.00 0.00 0.00 98 913.6
20260501201703 63 93 8.0 12.0 0.00 0.00 0.00 98 913.6
20260501201701 63 89 8.0 12.0 0.00 0.00 0.00 98 913.6
20260501201102 63 82 7.0 10.0 0.00 0.00 0.00 98 913.6
20260501200701 63 77 7.0 9.0 0.00 0.00 0.00 98 913.6
20260501200502 63 80 6.0 11.0 0.00 0.00 0.00 98 913.6
20260501200201 63 71 6.0 11.0 0.00 0.00 0.00 97 913.7
20260501195902 63 75 6.0 11.0 0.00 0.00 0.00 98 913.6
20260501195701 63 83 7.0 11.0 0.00 0.00 0.00 98 913.6
20260501195305 63 88 6.0 11.0 0.00 0.00 0.00 97 913.5
20260501195201 63 76 6.0 11.0 0.00 0.00 0.00 98 913.5
20260501194700 63 94 7.0 13.0 0.00 0.00 0.00 97 913.5
20260501194200 63 96 8.0 13.0 0.00 0.00 0.00 98 913.5
20260501194102 63 96 8.0 13.0 0.00 0.00 0.00 98 913.4
20260501193700 63 107 9.0 13.0 0.00 0.00 0.00 98 913.4
20260501193502 63 121 9.0 15.0 0.00 0.00 0.00 98 913.4
20260501193200 63 97 10.0 15.0 0.00 0.00 0.00 98 913.5
20260501192902 63 82 10.0 15.0 0.00 0.00 0.00 98 913.6
20260501192700 63 107 11.0 15.0 0.00 0.00 0.00 97 913.6
20260501192305 63 105 10.0 13.0 0.00 0.00 0.00 98 913.5
20260501192200 63 107 11.0 13.0 0.00 0.00 0.00 98 913.5